#timestamp,LO_Frequency,Hit,StdDev 
1567900815.6,286046999.0,N
1567900835.4,286046998.6,N
1567900855.2,286046998.1,N
1567900875.1,286046998.1,N
1567900876.0,286046998.1,N
1567900895.8,286047000.3,N
1567900915.7,286047000.2,N
1567900935.5,286046999.4,N
1567900955.3,286046997.2,N
1567900975.2,286046999.2,N
1567900995.9,286047001.0,N
1567901015.7,286047000.5,N
1567901035.6,286046998.6,N
1567901055.4,286047001.2,N
1567901075.2,286046998.5,N
1567901095.1,286047001.0,N
1567901096.0,286047001.0,N
1567901115.8,286047001.0,N
1567901135.7,286046998.6,N
1567901155.5,286046998.6,N
1567901175.3,286046999.0,N
1567901195.2,286047001.2,N
1567901215.0,286047001.0,N
1567901215.9,286047001.0,N
1567901235.8,286047000.2,N
1567901255.6,286046998.8,N
1567901275.4,286046999.4,N
1567901295.3,286046997.3,N
1567901315.1,286046997.2,N
1567901316.0,286046997.2,N
1567901335.8,286046994.9,Y
1567901355.7,286047001.1,P
1567901375.5,286046999.1,N
1567901395.3,286046999.2,N
1567901415.2,286047000.3,N
1567901435.0,286046998.2,N
1567901435.9,286046998.2,N
1567901455.8,286047000.7,N
1567901475.6,286047002.3,N
1567901495.4,286047002.3,N
1567901515.3,286047001.8,N
1567901535.1,286047003.5,N
1567901555.8,286047002.6,N
1567901575.7,286047001.4,N
1567901595.5,286047003.7,N
1567901615.4,286047003.9,N
1567901635.2,286047002.9,N
1567901655.0,286047004.8,N
1567901655.9,286047004.8,N
1567901675.8,286047002.9,N
1567901695.6,286047003.2,N
1567901715.5,286047003.3,N
1567901735.3,286047002.6,N
1567901755.1,286047000.0,N
1567901775.9,286047000.1,N
1567901795.7,286047004.3,N
1567901815.5,286047000.3,N
1567901835.4,286047001.4,N
1567901855.2,286047001.9,N
1567901875.0,286047001.6,N
1567901875.9,286047001.6,N
1567901895.8,286047002.5,N
1567901915.6,286047001.8,N
1567901935.5,286047000.2,N
1567901955.3,286047000.3,N
1567901975.1,286047000.7,N
1567901995.9,286046999.9,N
1567902015.7,286047002.2,N
1567902035.5,286047003.5,N
1567902055.4,286047004.2,N
1567902075.2,286047002.1,N
1567902095.1,286047001.6,N
1567902096.0,286047001.6,N
1567902115.8,286047001.3,N
1567902135.6,286047001.7,N
1567902155.5,286047001.9,N
1567902175.3,286047003.0,N
1567902195.1,286047003.8,N
1567902215.9,286047005.5,Y
1567902235.7,286047001.6,P
1567902255.6,286047001.5,P
1567902275.4,286047000.5,N
1567902295.2,286046999.4,N
1567902315.1,286046998.8,N
1567902316.0,286046998.8,N
1567902335.8,286046999.8,N
1567902355.6,286046999.7,N
1567902375.5,286047004.4,Y
1567902395.3,286047001.5,P
1567902415.2,286047002.1,P
1567902435.9,286047000.0,N
1567902455.7,286047002.6,N
1567902475.6,286047002.4,N
1567902495.4,286047000.4,N
1567902515.2,286047002.3,N
1567902535.1,286047002.5,N
1567902536.0,286047002.5,N
1567902555.8,286047004.0,Y
1567902575.7,286047002.2,P
1567902595.5,286047000.0,N
1567902615.3,286047002.3,N
1567902635.2,286047000.4,N
1567902655.0,286047002.4,N
1567902655.9,286047002.4,N
1567902675.8,286047000.9,N
1567902695.6,286047000.9,N
1567902715.4,286046998.6,N
1567902735.3,286047000.4,N
1567902755.1,286046998.7,N
1567902775.8,286046998.9,N
1567902795.7,286046996.9,N
1567902815.5,286046999.0,N
1567902835.4,286046997.0,N
1567902855.2,286046995.5,N
1567902875.0,286046995.2,N
1567902875.9,286046995.2,N
1567902895.8,286046995.0,N
1567902915.6,286046996.1,N
1567902935.5,286046996.0,N
1567902955.3,286046996.3,N
1567902975.1,286046993.5,N
1567902995.9,286046995.8,N
1567903015.7,286046995.8,N
1567903035.5,286046995.6,N
1567903055.4,286046995.7,N
1567903075.2,286046997.8,N
1567903095.1,286046997.5,N
1567903096.0,286046997.5,N
1567903115.8,286046995.6,N
1567903135.6,286046995.1,N
1567903155.5,286046997.9,N
1567903175.3,286046998.3,N
1567903195.1,286046998.5,N
1567903215.9,286047000.8,N
1567903235.7,286047000.8,N
1567903255.6,286046999.1,N
1567903275.4,286046999.0,N
1567903295.2,286046998.5,N
1567903315.1,286046997.2,N
1567903316.0,286046997.2,N
1567903335.8,286046996.5,N
1567903355.7,286046997.2,N
1567903375.5,286046999.5,N
1567903395.3,286046998.7,N
1567903415.2,286046999.3,N
1567903435.9,286046999.6,N
1567903455.7,286046996.4,N
1567903475.6,286046996.3,N
1567903495.4,286046994.4,Y
1567903515.3,286046997.4,P
1567903535.1,286046995.5,P
1567903536.0,286046995.5,P
1567903555.8,286046996.5,Y
1567903575.7,286046998.1,P
1567903595.5,286046999.2,N
1567903615.4,286046998.1,N
1567903635.2,286047000.3,N
1567903655.0,286046998.7,N
1567903655.9,286046998.7,N
1567903675.8,286046998.2,N
1567903695.6,286047002.8,N
1567903715.4,286046999.7,N
1567903735.3,286047002.7,N
1567903755.1,286046998.3,N
1567903775.9,286046999.7,N
1567903795.7,286047002.3,N
1567903815.5,286046999.8,N
1567903835.4,286047000.2,N
1567903855.2,286047004.0,N
1567903875.1,286047003.7,N
1567903876.0,286047003.7,N
1567903895.8,286047002.5,N
1567903915.6,286047002.0,N
1567903935.5,286047001.5,N
1567903955.3,286046999.8,N
1567903975.1,286047000.9,N
1567903995.9,286047000.5,N
1567904015.7,286047000.2,N
1567904035.6,286047002.2,N
1567904055.4,286047001.3,N
1567904075.2,286047002.6,N
1567904095.1,286047002.5,N
1567904096.0,286047002.5,N
1567904115.8,286047001.5,N
1567904135.7,286047004.3,N
1567904155.5,286047002.2,N
1567904175.3,286047001.6,N
1567904195.2,286047006.0,Y
1567904215.0,286047003.7,P
1567904215.9,286047003.7,P
1567904235.7,286047001.6,N
1567904255.6,286047000.6,N
1567904275.4,286047002.7,N
1567904295.3,286046999.7,N
1567904315.1,286046999.8,N
1567904316.0,286046999.8,N
1567904335.8,286047002.6,N
1567904355.7,286046999.8,N
1567904375.5,286047000.3,N
1567904395.3,286047002.7,N
